Regional Weather Roundup
Issued by NWS

Home | Current Version | Previous Version | Text Only | Print | Product List | Glossary On
Versions: 1 2 3 4 5 6 7 8 9 10 11 12 13 14 15 16 17 18 19 20 21 22 23 24 25 26 27 28 29 30 31 32 33 34 35 36 37 38 39 40 41 42 43 44 45 46 47 48 49 50
033
ASUS43 KLSX 111557
RWRMO

WEATHER SUMMARY FOR MISSOURI
NATIONAL WEATHER SERVICE SPRINGFIELD MO
1000 AM CST MON DEC 11 2017

NOTE: "FAIR" INDICATES FEW OR NO CLOUDS BELOW 12,000 FEET WITH NO
       SIGNIFICANT WEATHER AND/OR OBSTRUCTIONS TO VISIBILITY.
       CURRENT SKY AND/OR WEATHER CONDITIONS ARE NOT AVAILABLE FOR
       CHILLICOTHE AND FARMINGTON.

MOZ001>031-035>038-043-044-053-054-111700-
...NORTHERN AND WESTERN MISSOURI...

CITY           SKY/WX    TMP DP  RH WIND       PRES   REMARKS
KANSAS CTY INT CLOUDY    47  18  31 W10       29.98R
ST JOSEPH      PTSUNNY   48  21  34 NW20      29.97R
CHILLICOTHE      N/A     48  20  32 NW16G28   29.90R

$$
MOZ066>068-077>081-088>096-101>105-111700-
...SOUTHWEST MISSOURI...

CITY           SKY/WX    TMP DP  RH WIND       PRES   REMARKS
SPRINGFIELD    SUNNY     57  18  21 W14       30.01S
JOPLIN         SUNNY     51  21  30 W14       30.08R
BRANSON        SUNNY     55  18  22 SW10G18   30.06F

$$
MOZ032>034-039>042-045>050-055>058-069>072-111700-
...CENTRAL MISSOURI...

CITY           SKY/WX    TMP DP  RH WIND       PRES   REMARKS
COLUMBIA       NOT AVBL
JEFFERSON CITY SUNNY    N/A N/A N/A W12       29.90F
ROLLA          MOSUNNY   47  22  37 SW16G25   29.92F
SEDALIA        SUNNY     49  24  37 W17       29.93F
WARRENSBURG    SUNNY     46  21  36 SW13      29.94F

$$
MOZ051-052-059>065-111700-
...EAST CENTRAL MISSOURI...

CITY           SKY/WX    TMP DP  RH WIND       PRES   REMARKS
ST LOUIS INTL  PTSUNNY   48  25  40 SW15      29.85F

$$
MOZ072>076-082>087-097>100-106>115-111700-
...SOUTH CENTRAL AND SOUTHEAST MISSOURI...

CITY           SKY/WX    TMP DP  RH WIND       PRES   REMARKS
CAPE GIRARDEAU SUNNY     45  32  60 S3        30.04F
POPLAR BLUFF   SUNNY     45  31  58 SW12      30.05F
WEST PLAINS    SUNNY     52  24  33 SW8G16    30.01F

$$



USA.gov is the U.S. government's official web portal to all federal, state and local government web resources and services.